| time (UTC) | temp F | wind direction | speed MPH | gust MPH | rain 1hr in | rain 24hr in | rain mn in | humidity % | barometer mb |
| 20260505083039 | -90 | 248 | 0.0 | 0.0 | 0.00 | 0.00 | 0.00 | 89 | 1009.3 |
| 20260505083004 | 40 | 189 | 0.0 | 0.0 | 0.00 | 0.00 | 0.00 | 91 | 1007.0 |
| 20260505081505 | -90 | 248 | 0.0 | 0.0 | 0.00 | 0.00 | 0.00 | 89 | 1009.5 |
| 20260505080504 | 41 | 189 | 0.0 | 0.0 | 0.00 | 0.00 | 0.00 | 90 | 1007.0 |
| 20260505080113 | 0 | 0.0 | 0.0 | 0.00 | 0.00 | 0.00 | 1009.4 | ||
| 20260505074552 | -90 | 264 | 0.0 | 0.0 | 0.00 | 0.00 | 0.00 | 88 | 1009.5 |
| 20260505073507 | 42 | 189 | 0.0 | 0.0 | 0.00 | 0.00 | 0.00 | 89 | 1006.9 |
| 20260505073049 | -90 | 217 | 0.0 | 0.0 | 0.00 | 0.00 | 0.00 | 86 | 1009.5 |
| 20260505071554 | -90 | 217 | 0.0 | 0.0 | 0.00 | 0.00 | 0.00 | 86 | 1009.4 |
| 20260505070506 | 44 | 189 | 0.0 | 0.0 | 0.00 | 0.00 | 0.00 | 88 | 1006.9 |
| 20260505070045 | -90 | 217 | 0.0 | 0.0 | 0.00 | 0.00 | 0.00 | 85 | 1009.4 |
| 20260505070006 | 45 | 189 | 0.0 | 0.0 | 0.00 | 0.00 | 0.00 | 89 | 1006.9 |
| 20260505064531 | 48 | 275 | 0.0 | 0.0 | 0.00 | 0.00 | 0.00 | 84 | 1009.2 |
| 20260505063506 | 46 | 189 | 0.0 | 0.0 | 0.00 | 0.00 | 0.00 | 90 | 1006.8 |
| 20260505063027 | 46 | 283 | 0.0 | 0.0 | 0.00 | 0.00 | 0.00 | 85 | 1009.2 |
| 20260505063006 | 46 | 189 | 0.0 | 3.0 | 0.00 | 0.00 | 0.00 | 90 | 1006.8 |
| 20260505061527 | -90 | 264 | 0.0 | 5.0 | 0.00 | 0.00 | 0.00 | 86 | 1009.1 |
| 20260505060506 | 46 | 189 | 0.0 | 1.0 | 0.00 | 0.00 | 0.00 | 92 | 1006.8 |
| 20260505060019 | -90 | 283 | 0.0 | 0.0 | 0.00 | 0.00 | 0.00 | 87 | 1009.1 |
| 20260505060006 | 46 | 188 | 0.0 | 6.0 | 0.00 | 0.00 | 0.00 | 92 | 1006.9 |
| 20260505054544 | 46 | 231 | 0.0 | 0.0 | 0.00 | 0.00 | 0.00 | 87 | 1009.0 |
| 20260505053506 | 46 | 199 | 1.0 | 3.0 | 0.00 | 0.00 | 0.00 | 93 | 1006.9 |
| 20260505053043 | 0 | 0.0 | 0.0 | 0.00 | 0.00 | 0.00 | 1009.0 | ||
| 20260505051553 | 0 | 0.0 | 0.0 | 0.00 | 0.00 | 0.00 | 1009.1 | ||
| 20260505050505 | 45 | 210 | 2.0 | 5.0 | 0.00 | 0.00 | 0.00 | 94 | 1006.5 |
| 20260505041510 | 0 | 0.0 | 0.0 | 0.00 | 0.00 | 0.00 | 1008.5 | ||
| 20260505040007 | 44 | 248 | 0.0 | 0.0 | 0.00 | 0.00 | 0.00 | 86 | 1008.5 |
| 20260505034501 | -90 | 248 | 0.0 | 0.0 | 0.00 | 0.01 | 0.00 | 86 | 1008.3 |
| 20260505033058 | 46 | 257 | 0.0 | 0.0 | 0.00 | 0.01 | 0.00 | 86 | 1008.4 |
| 20260505031555 | -90 | 251 | 0.0 | 0.0 | 0.00 | 0.01 | 0.00 | 85 | 1008.2 |
| 20260505030046 | -90 | 251 | 0.0 | 0.0 | 0.00 | 0.01 | 0.00 | 83 | 1008.3 |
| 20260505030006 | 47 | 285 | 0.0 | 0.0 | 0.00 | 0.02 | 0.00 | 85 | 1005.9 |
| 20260505024548 | 44 | 255 | 0.0 | 0.0 | 0.00 | 0.01 | 0.00 | 83 | 1008.2 |
| 20260505023505 | 47 | 285 | 1.0 | 2.0 | 0.00 | 0.02 | 0.02 | 85 | 1005.9 |
| 20260505023037 | -90 | 251 | 0.0 | 0.0 | 0.00 | 0.01 | 0.00 | 82 | 1008.3 |
| 20260505023006 | 47 | 285 | 0.0 | 5.0 | 0.00 | 0.02 | 0.02 | 85 | 1005.9 |
| 20260505021533 | -90 | 248 | 0.0 | 0.0 | 0.00 | 0.01 | 0.00 | 82 | 1008.2 |
| 20260505020026 | 46 | 256 | 0.0 | 0.0 | 0.00 | 0.01 | 0.00 | 81 | 1008.0 |
| 20260505020006 | 47 | 236 | 1.0 | 5.0 | 0.00 | 0.02 | 0.02 | 84 | 1005.9 |
| 20260505014522 | -90 | 203 | 0.0 | 0.0 | 0.00 | 0.01 | 0.00 | 81 | 1007.9 |
| 20260505013505 | 47 | 259 | 0.0 | 2.0 | 0.00 | 0.02 | 0.02 | 84 | 1005.7 |
| 20260505013017 | 0 | 0.0 | 0.0 | 0.00 | 0.01 | 0.00 | 1007.6 | ||
| 20260505011516 | 0 | 0.0 | 0.0 | 0.00 | 0.01 | 0.00 | 1007.6 | ||
| 20260505010006 | 0 | 0.0 | 0.0 | 0.00 | 0.01 | 0.00 | 1007.1 | ||
| 20260505004504 | -90 | 269 | 0.0 | 6.0 | 0.00 | 0.02 | 0.00 | 100 | 1007.1 |
| 20260505003059 | -90 | 176 | 0.0 | 0.0 | 0.00 | 0.02 | 0.00 | 78 | 1006.7 |
| 20260505003007 | 48 | 297 | 2.0 | 6.0 | 0.00 | 0.05 | 0.02 | 81 | 1004.2 |
| 20260505001600 | 0 | 0.0 | 0.0 | 0.00 | 0.02 | 0.00 | 1006.3 | ||
| 20260505000506 | 49 | 287 | 2.0 | 8.0 | 0.00 | 0.05 | 0.02 | 80 | 1003.6 |
| 20260505000048 | -90 | 264 | 0.0 | 5.0 | 0.00 | 0.02 | 0.00 | 100 | 1006.1 |
| 20260504234541 | 0 | 0.0 | 0.0 | 0.00 | 0.05 | 0.02 | 1006.0 | ||
| 20260504233043 | 0 | 0.0 | 0.0 | 0.00 | 0.05 | 0.02 | 1005.8 | ||
| 20260504231530 | 0 | 0.0 | 0.0 | 0.00 | 0.05 | 0.02 | 1005.4 | ||
| 20260504230505 | 51 | 283 | 2.0 | 10.0 | 0.00 | 0.08 | 0.02 | 76 | 1003.2 |
| 20260504230024 | -90 | 225 | 0.0 | 0.0 | 0.00 | 0.05 | 0.02 | 100 | 1005.1 |
| 20260504230005 | 51 | 285 | 5.0 | 12.0 | 0.00 | 0.08 | 0.02 | 76 | 1003.2 |
| 20260504224521 | -90 | 176 | 0.0 | 0.0 | 0.00 | 0.08 | 0.02 | 100 | 1004.9 |
| 20260504223505 | 52 | 282 | 6.0 | 13.0 | 0.00 | 0.10 | 0.02 | 74 | 1003.0 |
| 20260504223015 | 0 | 0.0 | 0.0 | 0.00 | 0.08 | 0.02 | 1004.7 | ||
| 20260504223006 | 52 | 274 | 7.0 | 20.0 | 0.00 | 0.11 | 0.02 | 73 | 1003.0 |
| 20260504221511 | 50 | 275 | 0.0 | 10.0 | 0.00 | 0.08 | 0.02 | 70 | 1004.4 |
| 20260504220505 | 52 | 250 | 10.0 | 18.0 | 0.00 | 0.13 | 0.02 | 72 | 1002.6 |
| 20260504220039 | 51 | 137 | 1.0 | 10.0 | 0.00 | 0.08 | 0.02 | 69 | 1004.1 |
| 20260504214532 | 52 | 293 | 0.0 | 7.0 | 0.00 | 0.11 | 0.02 | 69 | 1004.1 |
| 20260504213505 | 52 | 276 | 7.0 | 14.0 | 0.00 | 0.14 | 0.02 | 71 | 1002.6 |
| 20260504213058 | 52 | 293 | 0.0 | 9.0 | 0.00 | 0.11 | 0.02 | 68 | 1004.0 |
| 20260504211554 | 52 | 293 | 0.0 | 10.0 | 0.00 | 0.11 | 0.02 | 68 | 1004.0 |
| 20260504210059 | 52 | 228 | 1.0 | 13.0 | 0.00 | 0.11 | 0.02 | 68 | 1003.9 |
| 20260504204548 | 52 | 259 | 0.0 | 13.0 | 0.00 | 0.16 | 0.02 | 67 | 1003.9 |
| 20260504203505 | 53 | 270 | 7.0 | 15.0 | 0.00 | 0.19 | 0.02 | 69 | 1002.3 |
| 20260504203052 | 52 | 243 | 2.0 | 13.0 | 0.00 | 0.16 | 0.02 | 65 | 1003.8 |
| 20260504201533 | 52 | 229 | 0.0 | 7.0 | 0.00 | 0.16 | 0.02 | 66 | 1003.8 |
| 20260504200505 | 54 | 237 | 6.0 | 14.0 | 0.00 | 0.21 | 0.02 | 67 | 1002.3 |
| 20260504200100 | 52 | 216 | 3.0 | 17.0 | 0.00 | 0.16 | 0.02 | 65 | 1003.8 |
| 20260504200005 | 54 | 259 | 6.0 | 17.0 | 0.00 | 0.22 | 0.02 | 67 | 1002.3 |
| 20260504194602 | 52 | 262 | 0.0 | 17.0 | 0.00 | 0.24 | 0.02 | 66 | 1003.9 |
| 20260504193505 | 54 | 224 | 6.0 | 12.0 | 0.00 | 0.25 | 0.02 | 71 | 1002.3 |
| 20260504193049 | 52 | 250 | 1.0 | 10.0 | 0.00 | 0.24 | 0.02 | 65 | 1004.0 |
| 20260504191543 | 53 | 151 | 1.0 | 14.0 | 0.00 | 0.24 | 0.02 | 64 | 1003.9 |
| 20260504190505 | 53 | 190 | 4.0 | 10.0 | 0.00 | 0.29 | 0.02 | 70 | 1002.4 |
| 20260504190059 | 53 | 324 | 3.0 | 18.0 | 0.00 | 0.24 | 0.02 | 63 | 1004.0 |
| 20260504190004 | 54 | 216 | 6.0 | 25.0 | 0.00 | 0.30 | 0.02 | 68 | 1002.4 |
| 20260504184535 | 55 | 265 | 1.0 | 15.0 | 0.00 | 0.37 | 0.02 | 54 | 1003.9 |
| 20260504183505 | 56 | 258 | 5.0 | 16.0 | 0.00 | 0.35 | 0.02 | 57 | 1001.8 |
| 20260504183032 | 56 | 211 | 1.0 | 12.0 | 0.00 | 0.37 | 0.02 | 47 | 1003.8 |
| 20260504183005 | 56 | 286 | 7.0 | 22.0 | 0.00 | 0.35 | 0.02 | 55 | 1001.8 |
| 20260504181523 | 57 | 42 | 3.0 | 12.0 | 0.00 | 0.37 | 0.02 | 42 | 1003.7 |
| 20260504180505 | 59 | 258 | 6.0 | 18.0 | 0.00 | 0.41 | 0.02 | 43 | 1001.6 |
| 20260504180018 | 58 | 252 | 1.0 | 13.0 | 0.00 | 0.37 | 0.02 | 41 | 1003.4 |
| 20260504180005 | 59 | 263 | 3.0 | 20.0 | 0.00 | 0.42 | 0.02 | 45 | 1001.3 |
| 20260504174514 | 59 | 250 | 0.0 | 11.0 | 0.00 | 0.43 | 0.02 | 37 | 1003.2 |
| 20260504173505 | 60 | 272 | 6.0 | 13.0 | 0.00 | 0.44 | 0.02 | 39 | 1001.3 |
| 20260504173008 | 59 | 214 | 0.0 | 11.0 | 0.00 | 0.43 | 0.02 | 38 | 1003.0 |
| 20260504171501 | 59 | 269 | 0.0 | 13.0 | 0.00 | 0.43 | 0.02 | 38 | 1003.0 |
| 20260504140504 | 51 | 238 | 5.0 | 10.0 | 0.00 | 0.53 | 0.02 | 57 | 1003.0 |
| 20260504130504 | 47 | 267 | 5.0 | 13.0 | 0.00 | 0.60 | 0.02 | 68 | 1002.3 |
| 20260504100503 | 35 | 301 | 2.0 | 9.0 | 0.00 | 0.70 | 0.02 | 91 | 1000.9 |